,,PressureMeas_1m,,PRMeasQMR101_1,,RHStat155_1m_1,,SRMeasQMS101R_1m,,TAStat155_1m_1,,GenWind_1,,GenWind_1,
2017-04-23, 07:00:06,VALID,919.182,VALID,0.0,VALID,98.857,VALID,49.463,VALID,18.381,VALID,101.0,VALID,0.495,
2017-04-23, 07:01:06,VALID,919.194,VALID,0.0,VALID,98.884,VALID,57.05,VALID,18.429,VALID,71.0,VALID,0.422,
2017-04-23, 07:02:06,VALID,919.204,VALID,0.0,VALID,98.888,VALID,67.776,VALID,18.492,VALID,24.0,VALID,0.059,
2017-04-23, 07:03:06,VALID,919.202,VALID,0.0,VALID,98.897,VALID,85.345,VALID,18.551,VALID,24.0,VALID,0.042,
2017-04-23, 07:04:06,VALID,919.23,VALID,0.0,VALID,98.877,VALID,114.743,VALID,18.617,VALID,16.0,VALID,0.036,
2017-04-23, 07:05:06,VALID,919.227,VALID,0.0,VALID,98.89,VALID,146.815,VALID,18.742,VALID,17.0,VALID,0.013,
2017-04-23, 07:06:06,VALID,919.24,VALID,0.0,VALID,98.931,VALID,165.742,VALID,18.93,VALID,19.0,VALID,0.0,
2017-04-23, 07:07:06,VALID,919.246,VALID,0.0,VALID,98.915,VALID,170.007,VALID,19.131,VALID,19.0,VALID,0.0,
2017-04-23, 07:08:06,VALID,919.239,VALID,0.0,VALID,98.892,VALID,165.669,VALID,19.266,VALID,19.0,VALID,0.0,
2017-04-23, 07:09:06,VALID,919.253,VALID,0.0,VALID,98.862,VALID,156.909,VALID,19.284,VALID,20.0,VALID,0.0,
2017-04-23, 07:10:06,VALID,919.242,VALID,0.0,VALID,98.794,VALID,153.283,VALID,19.293,VALID,148.0,VALID,0.086,
2017-04-23, 07:11:06,VALID,919.241,VALID,0.0,VALID,98.815,VALID,161.246,VALID,19.34,VALID,163.0,VALID,0.109,
2017-04-23, 07:12:06,VALID,919.236,VALID,0.0,VALID,98.799,VALID,171.688,VALID,19.336,VALID,174.0,VALID,0.172,
2017-04-23, 07:13:06,VALID,919.222,VALID,0.0,VALID,98.796,VALID,177.06,VALID,19.377,VALID,180.0,VALID,0.305,
2017-04-23, 07:14:06,VALID,919.2,VALID,0.0,VALID,98.782,VALID,184.527,VALID,19.373,VALID,182.0,VALID,0.353,
2017-04-23, 07:15:06,VALID,919.217,VALID,0.0,VALID,98.843,VALID,189.705,VALID,19.41,VALID,184.0,VALID,0.065,
2017-04-23, 07:16:06,VALID,919.219,VALID,0.0,VALID,98.855,VALID,195.573,VALID,19.551,VALID,184.0,VALID,0.0,
2017-04-23, 07:17:06,VALID,919.233,VALID,0.0,VALID,98.839,VALID,201.824,VALID,19.651,VALID,205.0,VALID,0.143,
2017-04-23, 07:18:06,VALID,919.245,VALID,0.0,VALID,98.657,VALID,210.212,VALID,19.527,VALID,239.0,VALID,0.218,
2017-04-23, 07:19:06,VALID,919.258,VALID,0.0,VALID,98.619,VALID,219.22,VALID,19.399,VALID,254.0,VALID,0.421,
2017-04-23, 07:20:06,VALID,919.28,VALID,0.0,VALID,98.531,VALID,227.191,VALID,19.226,VALID,259.0,VALID,0.455,
2017-04-23, 07:21:06,VALID,919.288,VALID,0.0,VALID,98.624,VALID,234.219,VALID,19.178,VALID,252.0,VALID,0.321,
2017-04-23, 07:22:06,VALID,919.303,VALID,0.0,VALID,98.717,VALID,241.268,VALID,19.244,VALID,252.0,VALID,0.146,
2017-04-23, 07:23:06,VALID,919.312,VALID,0.0,VALID,98.739,VALID,248.7,VALID,19.326,VALID,251.0,VALID,0.008,
2017-04-23, 07:24:06,VALID,919.329,VALID,0.0,VALID,98.76,VALID,255.965,VALID,19.435,VALID,266.0,VALID,0.089,
2017-04-23, 07:25:06,VALID,919.349,VALID,0.0,VALID,98.705,VALID,261.55,VALID,19.508,VALID,273.0,VALID,0.014,
2017-04-23, 07:26:06,VALID,919.354,VALID,0.0,VALID,98.755,VALID,266.215,VALID,19.66,VALID,275.0,VALID,0.0,
2017-04-23, 07:27:06,VALID,919.377,VALID,0.0,VALID,98.698,VALID,270.274,VALID,19.797,VALID,279.0,VALID,0.007,
2017-04-23, 07:28:06,VALID,919.376,VALID,0.0,VALID,98.483,VALID,274.387,VALID,19.684,VALID,279.0,VALID,0.04,
2017-04-23, 07:29:06,VALID,919.381,VALID,0.0,VALID,98.338,VALID,278.205,VALID,19.555,VALID,277.0,VALID,0.024,
2017-04-23, 07:30:06,VALID,919.385,VALID,0.0,VALID,98.247,VALID,281.89,VALID,19.487,VALID,256.0,VALID,0.045,
2017-04-23, 07:31:06,VALID,919.384,VALID,0.0,VALID,98.311,VALID,285.665,VALID,19.582,VALID,259.0,VALID,0.0,
2017-04-23, 07:32:06,VALID,919.396,VALID,0.0,VALID,98.53,VALID,289.584,VALID,19.848,VALID,261.0,VALID,0.039,
2017-04-23, 07:33:06,VALID,919.39,VALID,0.0,VALID,98.437,VALID,293.533,VALID,19.926,VALID,282.0,VALID,0.046,
2017-04-23, 07:34:06,VALID,919.407,VALID,0.0,VALID,98.349,VALID,297.675,VALID,20.011,VALID,300.0,VALID,0.002,
2017-04-23, 07:35:06,VALID,919.401,VALID,0.0,VALID,98.21,VALID,301.954,VALID,20.01,VALID,342.0,VALID,0.106,
2017-04-23, 07:36:06,VALID,919.401,VALID,0.0,VALID,98.372,VALID,306.623,VALID,20.161,VALID,32.0,VALID,0.616,
2017-04-23, 07:37:06,VALID,919.425,VALID,0.0,VALID,98.193,VALID,311.5,VALID,20.131,VALID,14.0,VALID,0.661,
2017-04-23, 07:38:06,VALID,919.432,VALID,0.0,VALID,98.061,VALID,316.333,VALID,20.168,VALID,23.0,VALID,0.52,
2017-04-23, 07:39:06,VALID,919.456,VALID,0.0,VALID,98.204,VALID,320.529,VALID,20.337,VALID,20.0,VALID,0.837,
2017-04-23, 07:40:06,VALID,919.482,VALID,0.0,VALID,97.689,VALID,324.952,VALID,20.209,VALID,2.0,VALID,0.562,
2017-04-23, 07:41:06,VALID,919.519,VALID,0.0,VALID,97.714,VALID,330.312,VALID,20.258,VALID,345.0,VALID,0.624,
2017-04-23, 07:42:06,VALID,919.555,VALID,0.0,VALID,97.77,VALID,333.404,VALID,20.354,VALID,336.0,VALID,0.601,
2017-04-23, 07:43:06,VALID,919.589,VALID,0.0,VALID,97.616,VALID,338.884,VALID,20.37,VALID,343.0,VALID,0.301,
2017-04-23, 07:44:06,VALID,919.617,VALID,0.0,VALID,97.796,VALID,329.674,VALID,20.473,VALID,355.0,VALID,0.488,
2017-04-23, 07:45:06,VALID,919.637,VALID,0.0,VALID,97.536,VALID,349.841,VALID,20.467,VALID,341.0,VALID,0.63,
2017-04-23, 07:46:06,VALID,919.66,VALID,0.0,VALID,97.211,VALID,354.649,VALID,20.336,VALID,8.0,VALID,0.421,
2017-04-23, 07:47:06,VALID,919.653,VALID,0.0,VALID,97.531,VALID,356.539,VALID,20.41,VALID,312.0,VALID,0.191,
2017-04-23, 07:48:06,VALID,919.672,VALID,0.0,VALID,96.649,VALID,359.723,VALID,20.258,VALID,243.0,VALID,0.415,
2017-04-23, 07:49:06,VALID,919.683,VALID,0.0,VALID,96.55,VALID,364.173,VALID,20.13,VALID,263.0,VALID,0.357,
2017-04-23, 07:50:06,VALID,919.688,VALID,0.0,VALID,96.737,VALID,368.8,VALID,20.07,VALID,258.0,VALID,0.382,
2017-04-23, 07:51:06,VALID,919.692,VALID,0.0,VALID,96.71,VALID,373.483,VALID,20.023,VALID,280.0,VALID,0.409,
2017-04-23, 07:52:06,VALID,919.706,VALID,0.0,VALID,96.764,VALID,378.183,VALID,20.03,VALID,266.0,VALID,0.203,
2017-04-23, 07:53:06,VALID,919.716,VALID,0.0,VALID,96.941,VALID,383.123,VALID,20.091,VALID,268.0,VALID,0.451,
2017-04-23, 07:54:06,VALID,919.74,VALID,0.0,VALID,96.52,VALID,388.015,VALID,20.067,VALID,268.0,VALID,0.225,
2017-04-23, 07:55:06,VALID,919.766,VALID,0.0,VALID,96.75,VALID,392.94,VALID,20.112,VALID,297.0,VALID,0.392,
2017-04-23, 07:56:06,VALID,919.787,VALID,0.0,VALID,96.227,VALID,397.962,VALID,20.081,VALID,294.0,VALID,0.461,
2017-04-23, 07:57:06,VALID,919.803,VALID,0.0,VALID,96.243,VALID,403.01,VALID,20.085,VALID,294.0,VALID,0.435,
2017-04-23, 07:58:06,VALID,919.828,VALID,0.0,VALID,96.043,VALID,407.952,VALID,20.079,VALID,299.0,VALID,0.781,
2017-04-23, 07:59:06,VALID,919.854,VALID,0.0,VALID,95.507,VALID,413.189,VALID,19.964,VALID,285.0,VALID,0.784,
2017-04-23, 08:00:06,VALID,919.88,VALID,0.0,VALID,95.906,VALID,418.555,VALID,19.902,VALID,282.0,VALID,0.514,
2017-04-23, 08:01:06,VALID,919.891,VALID,0.0,VALID,96.599,VALID,424.136,VALID,19.982,VALID,269.0,VALID,0.211,
2017-04-23, 08:02:06,VALID,919.898,VALID,0.0,VALID,96.882,VALID,409.977,VALID,20.112,VALID,297.0,VALID,0.268,
2017-04-23, 08:03:06,VALID,919.899,VALID,0.0,VALID,96.672,VALID,338.22,VALID,20.198,VALID,277.0,VALID,0.247,
2017-04-23, 08:04:06,VALID,919.913,VALID,0.0,VALID,96.651,VALID,442.82,VALID,20.29,VALID,280.0,VALID,0.329,
2017-04-23, 08:05:06,VALID,919.904,VALID,0.0,VALID,96.837,VALID,450.228,VALID,20.441,VALID,271.0,VALID,0.332,
2017-04-23, 08:06:06,VALID,919.907,VALID,0.0,VALID,95.289,VALID,456.327,VALID,20.402,VALID,287.0,VALID,0.696,
2017-04-23, 08:07:06,VALID,919.92,VALID,0.0,VALID,94.912,VALID,463.071,VALID,20.365,VALID,285.0,VALID,0.566,
2017-04-23, 08:08:06,VALID,919.941,VALID,0.0,VALID,94.578,VALID,471.681,VALID,20.368,VALID,288.0,VALID,0.843,
2017-04-23, 08:09:06,VALID,919.97,VALID,0.0,VALID,94.188,VALID,477.097,VALID,20.348,VALID,294.0,VALID,0.832,
2017-04-23, 08:10:06,VALID,919.963,VALID,0.0,VALID,94.892,VALID,445.11,VALID,20.384,VALID,290.0,VALID,0.612,
2017-04-23, 08:11:06,VALID,919.97,VALID,0.0,VALID,94.525,VALID,436.283,VALID,20.376,VALID,296.0,VALID,0.919,
2017-04-23, 08:12:06,VALID,919.967,VALID,0.0,VALID,95.017,VALID,425.193,VALID,20.408,VALID,285.0,VALID,0.448,
2017-04-23, 08:13:06,VALID,919.971,VALID,0.0,VALID,95.962,VALID,427.914,VALID,20.549,VALID,333.0,VALID,0.455,
2017-04-23, 08:14:06,VALID,919.975,VALID,0.0,VALID,95.749,VALID,403.806,VALID,20.684,VALID,360.0,VALID,0.269,
2017-04-23, 08:15:06,VALID,919.982,VALID,0.0,VALID,95.915,VALID,419.543,VALID,20.818,VALID,20.0,VALID,0.568,
2017-04-23, 08:16:06,VALID,919.991,VALID,0.0,VALID,95.939,VALID,411.065,VALID,20.939,VALID,355.0,VALID,0.523,
2017-04-23, 08:17:06,VALID,920.013,VALID,0.0,VALID,95.767,VALID,397.216,VALID,21.051,VALID,1.0,VALID,0.242,
2017-04-23, 08:18:06,VALID,920.032,VALID,0.0,VALID,95.222,VALID,407.975,VALID,21.139,VALID,349.0,VALID,0.261,
2017-04-23, 08:19:06,VALID,920.044,VALID,0.0,VALID,93.69,VALID,423.262,VALID,21.103,VALID,290.0,VALID,0.426,
2017-04-23, 08:20:06,VALID,920.053,VALID,0.0,VALID,92.692,VALID,406.828,VALID,20.987,VALID,315.0,VALID,0.433,
2017-04-23, 08:21:06,VALID,920.05,VALID,0.0,VALID,93.888,VALID,376.726,VALID,20.971,VALID,331.0,VALID,0.001,
2017-04-23, 08:22:06,VALID,920.057,VALID,0.0,VALID,94.335,VALID,382.131,VALID,21.019,VALID,290.0,VALID,0.431,
2017-04-23, 08:23:06,VALID,920.068,VALID,0.0,VALID,93.317,VALID,388.038,VALID,20.991,VALID,334.0,VALID,0.37,
2017-04-23, 08:24:06,VALID,920.082,VALID,0.0,VALID,93.918,VALID,389.625,VALID,20.991,VALID,9.0,VALID,0.013,
2017-04-23, 08:25:06,VALID,920.105,VALID,0.0,VALID,93.648,VALID,398.73,VALID,20.993,VALID,314.0,VALID,0.663,
2017-04-23, 08:26:06,VALID,920.127,VALID,0.0,VALID,94.014,VALID,409.897,VALID,20.976,VALID,300.0,VALID,0.11,
2017-04-23, 08:27:06,VALID,920.149,VALID,0.0,VALID,94.848,VALID,414.838,VALID,21.056,VALID,281.0,VALID,0.342,
2017-04-23, 08:28:06,VALID,920.168,VALID,0.0,VALID,93.237,VALID,403.509,VALID,21.004,VALID,303.0,VALID,0.289,
2017-04-23, 08:29:06,VALID,920.17,VALID,0.0,VALID,94.666,VALID,404.121,VALID,21.048,VALID,302.0,VALID,0.011,
2017-04-23, 08:30:06,VALID,920.173,VALID,0.0,VALID,94.423,VALID,396.289,VALID,21.11,VALID,269.0,VALID,0.073,
2017-04-23, 08:31:06,VALID,920.168,VALID,0.0,VALID,93.839,VALID,389.432,VALID,21.143,VALID,295.0,VALID,0.162,
2017-04-23, 08:32:06,VALID,920.163,VALID,0.0,VALID,94.811,VALID,407.532,VALID,21.223,VALID,333.0,VALID,0.018,
2017-04-23, 08:33:06,VALID,920.169,VALID,0.0,VALID,94.183,VALID,434.024,VALID,21.27,VALID,306.0,VALID,0.158,
2017-04-23, 08:34:06,VALID,920.181,VALID,0.0,VALID,94.462,VALID,454.998,VALID,21.334,VALID,315.0,VALID,0.052,
2017-04-23, 08:35:06,VALID,920.193,VALID,0.0,VALID,94.466,VALID,452.521,VALID,21.408,VALID,325.0,VALID,0.004,
2017-04-23, 08:36:06,VALID,920.191,VALID,0.0,VALID,94.387,VALID,433.882,VALID,21.492,VALID,315.0,VALID,0.232,
2017-04-23, 08:37:06,VALID,920.188,VALID,0.0,VALID,94.372,VALID,428.648,VALID,21.571,VALID,337.0,VALID,0.431,
2017-04-23, 08:38:06,VALID,920.199,VALID,0.0,VALID,92.552,VALID,433.567,VALID,21.535,VALID,311.0,VALID,0.317,
2017-04-23, 08:39:06,VALID,920.212,VALID,0.0,VALID,92.728,VALID,438.542,VALID,21.476,VALID,329.0,VALID,0.294,
2017-04-23, 08:40:06,VALID,920.211,VALID,0.0,VALID,93.025,VALID,429.117,VALID,21.465,VALID,343.0,VALID,0.41,
2017-04-23, 08:41:06,VALID,920.229,VALID,0.0,VALID,93.422,VALID,380.024,VALID,21.538,VALID,21.0,VALID,0.471,
2017-04-23, 08:42:06,VALID,920.24,VALID,0.0,VALID,93.311,VALID,382.992,VALID,21.6,VALID,330.0,VALID,0.38,
